Weather in Šilalė

Lithuania     55°29′27″N   22°10′56″E
temp.,
°C
wind,
m/s
gust,
m/s
humid.,
%
clouds,
%
prec.,
mm/h
press.,
hPa
HPBL,
m
27 february, sat
sat2723:00+2w499430 0.0 1018276
02:00+1nw4109220 0.0 1019273
05:00+1nw6148926 0.0 1019499
08:00+1nw6148913 0.0 1022489
11:00+3nnw712800 0.0 1024672
14:00+5nnw711660 0.0 1027975
17:00+4nw511680 0.0 1027685
20:000nw410880 0.0 1029307
28 february, sun
sun2823:000nw489237 0.0 1029271
02:00+1wnw498869 0.0 1029297
05:00+1wnw4108666 0.0 1028275
08:00+1wnw4108781 0.0 1027267
11:00+5wnw5107567 0.0 1026458
14:00+7nnw6117374 0.0 10261027
17:00+5nnw398075 0.0 1026456
20:00+3nnw4119041 0.0 1028299
1 march, mon
mon123:00+2nnw49930 0.0 1029247
02:00+1nw38940 0.0 1031192
05:00+1nw48940 0.0 1030186
08:00+1wnw37920 0.0 1031150
11:00+7w59710 0.0 1030447
14:00+8w510670 0.0 1029485
17:00+6w7147811 0.0 1028581
20:00+3w5119440 0.0 1028452
2 march, tue
tue223:00+2wnw499542 0.0 1028272
02:00+1wnw359321 0.0 102992
05:00+1wnw23900 0.0 102855
08:00+1w35907 0.0 102993
11:00+6w35720 0.0 1029299
14:00+8w46710 0.0 1029451
17:00+5w47820 0.0 1028406
20:00+2w37989 0.0 1029211
3 march, wed
wed323:00+1wnw349777 0.0 1029186
02:00+1w239780 0.0 1029148
05:00+1w239795 0.0 1029161
08:00+1wsw239696 0.0 1028191
11:00+2sw2391100 0.0 1028261
14:00+3sw348397 0.0 1027406
17:00+3wsw358795 0.0 1024523
20:00+1sw249472 0.0 102378